| time (UTC) | temp F | wind direction | speed MPH | gust MPH | rain 1hr in | rain 24hr in | rain mn in | humidity % | barometer mb |
| 20260510175956 | 68 | 48 | 3.0 | 3.0 | 0.00 | 0.00 | 0.00 | ||
| 20260510175457 | 67 | 51 | 2.0 | 2.0 | 0.00 | 0.00 | 0.00 | ||
| 20260510174954 | 69 | 53 | 2.0 | 2.0 | 0.00 | 0.00 | 0.00 | ||
| 20260510174455 | 69 | 66 | 2.0 | 2.0 | 0.00 | 0.00 | 0.00 | ||
| 20260510173957 | 69 | 48 | 2.0 | 1.0 | 0.00 | 0.00 | 0.00 | ||
| 20260510172959 | 66 | 21 | 1.0 | 1.0 | 0.00 | 0.00 | 0.00 | ||
| 20260510172456 | 67 | 39 | 1.0 | 1.0 | 0.00 | 0.00 | 0.00 | ||
| 20260510171958 | 68 | 23 | 1.0 | 2.0 | 0.00 | 0.00 | 0.00 | ||
| 20260510171459 | 70 | 60 | 1.0 | 1.0 | 0.00 | 0.00 | 0.00 | ||
| 20260510171000 | 69 | 53 | 1.0 | 1.0 | 0.00 | 0.00 | 0.00 | ||
| 20260510165000 | 70 | 59 | 4.0 | 4.0 | 0.00 | 0.00 | 0.00 | ||
| 20260510164501 | 72 | 75 | 3.0 | 4.0 | 0.00 | 0.00 | 0.00 | ||
| 20260510163501 | 71 | 75 | 5.0 | 5.0 | 0.00 | 0.00 | 0.00 | ||
| 20260510162004 | 76 | 93 | 3.0 | 3.0 | 0.00 | 0.00 | 0.00 | ||
| 20260510161505 | 78 | 96 | 4.0 | 3.0 | 0.00 | 0.00 | 0.00 | ||
| 20260510161002 | 79 | 104 | 5.0 | 6.0 | 0.00 | 0.00 | 0.00 | ||
| 20260510160503 | 80 | 110 | 3.0 | 2.0 | 0.00 | 0.00 | 0.00 | ||
| 20260510160004 | 80 | 111 | 3.0 | 6.0 | 0.00 | 0.00 | 0.00 | ||
| 20260510155505 | 79 | 125 | 4.0 | 4.0 | 0.00 | 0.00 | 0.00 | ||
| 20260510155006 | 78 | 122 | 4.0 | 5.0 | 0.00 | 0.00 | 0.00 | ||
| 20260510154005 | 78 | 73 | 3.0 | 1.0 | 0.00 | 0.00 | 0.00 | ||
| 20260510153506 | 77 | 105 | 2.0 | 2.0 | 0.00 | 0.00 | 0.00 | ||
| 20260510153007 | 77 | 111 | 5.0 | 5.0 | 0.00 | 0.00 | 0.00 | ||
| 20260510152508 | 78 | 83 | 4.0 | 6.0 | 0.00 | 0.00 | 0.00 | ||
| 20260510151506 | 79 | 100 | 5.0 | 4.0 | 0.00 | 0.00 | 0.00 | ||
| 20260510151007 | 80 | 132 | 9.0 | 6.0 | 0.00 | 0.00 | 0.00 | ||
| 20260510145007 | 83 | 117 | 4.0 | 4.0 | 0.00 | 0.00 | 0.00 | ||
| 20260510144507 | 82 | 117 | 7.0 | 5.0 | 0.00 | 0.00 | 0.00 | ||
| 20260510142008 | 79 | 70 | 9.0 | 8.0 | 0.00 | 0.00 | 0.00 | ||
| 20260510141009 | 83 | 42 | 6.0 | 3.0 | 0.00 | 0.00 | 0.00 | ||
| 20260510140506 | 84 | 136 | 9.0 | 9.0 | 0.00 | 0.00 | 0.00 | ||
| 20260510140007 | 84 | 135 | 4.0 | 8.0 | 0.00 | 0.00 | 0.00 | ||
| 20260510135008 | 84 | 136 | 7.0 | 7.0 | 0.00 | 0.00 | 0.00 | ||
| 20260510131507 | 80 | 96 | 4.0 | 4.0 | 0.00 | 0.00 | 0.00 | ||
| 20260510131006 | 82 | 129 | 9.0 | 5.0 | 0.00 | 0.00 | 0.00 | ||
| 20260510124009 | 81 | 107 | 6.0 | 8.0 | 0.00 | 0.00 | 0.00 | ||
| 20260510122010 | 80 | 136 | 10.0 | 7.0 | 0.00 | 0.00 | 0.00 | ||
| 20260510121511 | 82 | 139 | 7.0 | 8.0 | 0.00 | 0.00 | 0.00 | ||
| 20260510114015 | 79 | 114 | 6.0 | 5.0 | 0.00 | 0.00 | 0.00 | ||
| 20260510113513 | 79 | 96 | 6.0 | 5.0 | 0.00 | 0.00 | 0.00 | ||
| 20260510113014 | 79 | 73 | 9.0 | 9.0 | 0.00 | 0.00 | 0.00 | ||
| 20260510111013 | 79 | 86 | 10.0 | 5.0 | 0.00 | 0.00 | 0.00 | ||
| 20260510110514 | 79 | 110 | 9.0 | 8.0 | 0.00 | 0.00 | 0.00 | ||
| 20260510110016 | 79 | 128 | 10.0 | 11.0 | 0.00 | 0.00 | 0.00 | ||
| 20260510104017 | 78 | 138 | 5.0 | 8.0 | 0.00 | 0.00 | 0.00 | ||
| 20260510103518 | 78 | 141 | 8.0 | 11.0 | 0.00 | 0.00 | 0.00 | ||
| 20260510102520 | 77 | 131 | 6.0 | 6.0 | 0.00 | 0.00 | 0.00 | ||
| 20260510101021 | 77 | 96 | 9.0 | 12.0 | 0.00 | 0.00 | 0.00 | ||
| 20260510100023 | 76 | 142 | 10.0 | 9.0 | 0.00 | 0.00 | 0.00 | ||
| 20260510095521 | 76 | 94 | 9.0 | 6.0 | 0.00 | 0.00 | 0.00 | ||
| 20260510094024 | 76 | 155 | 9.0 | 6.0 | 0.00 | 0.00 | 0.00 | ||
| 20260510093023 | 74 | 101 | 8.0 | 6.0 | 0.00 | 0.00 | 0.00 | ||
| 20260510092524 | 73 | 90 | 5.0 | 4.0 | 0.00 | 0.00 | 0.00 | ||
| 20260510092026 | 73 | 113 | 8.0 | 6.0 | 0.00 | 0.00 | 0.00 | ||
| 20260510091527 | 72 | 83 | 9.0 | 11.0 | 0.00 | 0.00 | 0.00 | ||
| 20260510084030 | 72 | 159 | 9.0 | 6.0 | 0.00 | 0.00 | 0.00 | ||
| 20260510083032 | 70 | 135 | 7.0 | 4.0 | 0.00 | 0.00 | 0.00 | ||
| 20260510082533 | 69 | 150 | 9.0 | 7.0 | 0.00 | 0.00 | 0.00 | ||
| 20260510082035 | 70 | 101 | 5.0 | 5.0 | 0.00 | 0.00 | 0.00 | ||
| 20260510081032 | 70 | 132 | 4.0 | 6.0 | 0.00 | 0.00 | 0.00 | ||
| 20260510075536 | 68 | 145 | 7.0 | 5.0 | 0.00 | 0.00 | 0.00 | ||
| 20260510075034 | 68 | 131 | 8.0 | 8.0 | 0.00 | 0.00 | 0.00 | ||
| 20260510074535 | 68 | 89 | 6.0 | 9.0 | 0.00 | 0.00 | 0.00 | ||
| 20260510074036 | 67 | 163 | 3.0 | 4.0 | 0.00 | 0.00 | 0.00 | ||
| 20260510073039 | 67 | 110 | 7.0 | 8.0 | 0.00 | 0.00 | 0.00 | ||
| 20260510072538 | 67 | 90 | 8.0 | 8.0 | 0.00 | 0.00 | 0.00 | ||
| 20260510072039 | 65 | 96 | 8.0 | 5.0 | 0.00 | 0.00 | 0.00 | ||
| 20260510071540 | 65 | 150 | 6.0 | 5.0 | 0.00 | 0.00 | 0.00 | ||
| 20260510071042 | 65 | 104 | 8.0 | 7.0 | 0.00 | 0.00 | 0.00 | ||
| 20260510070543 | 64 | 83 | 5.0 | 6.0 | 0.00 | 0.00 | 0.00 | ||
| 20260510070041 | 63 | 96 | 6.0 | 6.0 | 0.00 | 0.00 | 0.00 | ||
| 20260510065044 | 63 | 148 | 5.0 | 5.0 | 0.00 | 0.00 | 0.00 | ||
| 20260510064544 | 62 | 145 | 6.0 | 6.0 | 0.00 | 0.00 | 0.00 | ||
| 20260510064045 | 62 | 148 | 5.0 | 2.0 | 0.00 | 0.00 | 0.00 | ||
| 20260510063544 | 61 | 90 | 5.0 | 5.0 | 0.00 | 0.00 | 0.00 | ||
| 20260510063045 | 62 | 128 | 5.0 | 5.0 | 0.00 | 0.00 | 0.00 | ||
| 20260510062547 | 61 | 104 | 4.0 | 4.0 | 0.00 | 0.00 | 0.00 | ||
| 20260510062048 | 61 | 72 | 5.0 | 5.0 | 0.00 | 0.00 | 0.00 | ||
| 20260510061550 | 59 | 110 | 4.0 | 3.0 | 0.00 | 0.00 | 0.00 | ||
| 20260510061047 | 58 | 89 | 4.0 | 3.0 | 0.00 | 0.00 | 0.00 | ||
| 20260510060549 | 59 | 82 | 1.0 | 3.0 | 0.00 | 0.00 | 0.00 | ||
| 20260510060050 | 59 | 110 | 4.0 | 3.0 | 0.00 | 0.00 | 0.00 | ||
| 20260510053550 | 55 | 14 | 1.0 | 0.0 | 0.00 | 0.00 | 0.00 | ||
| 20260510053052 | 54 | 46 | 2.0 | 1.0 | 0.00 | 0.00 | 0.00 | ||
| 20260510051553 | 54 | 63 | 3.0 | 2.0 | 0.00 | 0.00 | 0.00 | ||
| 20260510051054 | 52 | 51 | 2.0 | 2.0 | 0.00 | 0.00 | 0.00 | ||
| 20260510050556 | 51 | 3 | 0.0 | 0.0 | 0.00 | 0.00 | 0.00 | ||
| 20260510050057 | 50 | 3 | 0.0 | 0.0 | 0.00 | 0.00 | 0.00 | ||
| 20260510045556 | 50 | 3 | 0.0 | 0.0 | 0.00 | 0.00 | 0.00 | ||
| 20260510044559 | 49 | 3 | 0.0 | 0.0 | 0.00 | 0.00 | 0.00 | ||
| 20260510044100 | 50 | 3 | 0.0 | 0.0 | 0.00 | 0.00 | 0.00 | ||
| 20260510043602 | 48 | 3 | 0.0 | 0.0 | 0.00 | 0.00 | 0.00 | ||
| 20260510043059 | 49 | 3 | 0.0 | 0.0 | 0.00 | 0.00 | 0.00 | ||
| 20260510042600 | 49 | 352 | 1.0 | 2.0 | 0.00 | 0.00 | 0.00 | ||
| 20260510041603 | 47 | 345 | 0.0 | 0.0 | 0.00 | 0.00 | 0.00 | ||
| 20260510041105 | 46 | 345 | 0.0 | 0.0 | 0.00 | 0.00 | 0.00 | ||
| 20260510040603 | 46 | 345 | 0.0 | 0.0 | 0.00 | 0.00 | 0.00 | ||
| 20260510040105 | 47 | 357 | 1.0 | 1.0 | 0.00 | 0.00 | 0.00 | ||
| 20260510035606 | 47 | 21 | 2.0 | 2.0 | 0.00 | 0.00 | 0.00 | ||
| 20260510035108 | 47 | 10 | 0.0 | 0.0 | 0.00 | 0.00 | 0.00 | ||
| 20260510034608 | 46 | 10 | 0.0 | 0.0 | 0.00 | 0.00 | 0.00 | ||
| 20260510034106 | 45 | 10 | 0.0 | 0.0 | 0.00 | 0.00 | 0.00 | ||
| 20260510030610 | 46 | 21 | 2.0 | 2.0 | 0.00 | 0.00 | 0.00 | ||
| 20260510030111 | 46 | 0 | 2.0 | 2.0 | 0.00 | 0.00 | 0.00 | ||
| 20260510025611 | 46 | 1 | 1.0 | 2.0 | 0.00 | 0.00 | 0.00 | ||
| 20260510025109 | 46 | 28 | 1.0 | 1.0 | 0.00 | 0.00 | 0.00 | ||
| 20260510024112 | 47 | 345 | 1.0 | 0.0 | 0.00 | 0.00 | 0.00 | ||
| 20260510023613 | 47 | 1 | 2.0 | 2.0 | 0.00 | 0.00 | 0.00 | ||
| 20260510023115 | 46 | 350 | 1.0 | 2.0 | 0.00 | 0.00 | 0.00 | ||
| 20260510022612 | 47 | 333 | 2.0 | 2.0 | 0.00 | 0.00 | 0.00 | ||
| 20260510022114 | 46 | 347 | 2.0 | 2.0 | 0.00 | 0.00 | 0.00 | ||
| 20260510021116 | 48 | 326 | 0.0 | 0.0 | 0.00 | 0.00 | 0.00 | ||
| 20260510020618 | 47 | 342 | 1.0 | 1.0 | 0.00 | 0.00 | 0.00 | ||
| 20260510020115 | 47 | 356 | 1.0 | 1.0 | 0.00 | 0.00 | 0.00 | ||
| 20260510015118 | 48 | 38 | 2.0 | 2.0 | 0.00 | 0.00 | 0.00 | ||
| 20260510014619 | 47 | 48 | 2.0 | 2.0 | 0.00 | 0.00 | 0.00 | ||
| 20260510014121 | 48 | 41 | 2.0 | 3.0 | 0.00 | 0.00 | 0.00 | ||
| 20260510013619 | 48 | 27 | 2.0 | 2.0 | 0.00 | 0.00 | 0.00 | ||
| 20260510012622 | 49 | 25 | 1.0 | 1.0 | 0.00 | 0.00 | 0.00 | ||
| 20260510012123 | 49 | 3 | 2.0 | 2.0 | 0.00 | 0.00 | 0.00 | ||
| 20260510011625 | 49 | 3 | 2.0 | 2.0 | 0.00 | 0.00 | 0.00 | ||
| 20260510011123 | 49 | 353 | 2.0 | 2.0 | 0.00 | 0.00 | 0.00 | ||
| 20260510005129 | 49 | 339 | 1.0 | 1.0 | 0.00 | 0.00 | 0.00 | ||
| 20260510003131 | 50 | 309 | 0.0 | 0.0 | 0.00 | 0.00 | 0.00 | ||
| 20260510002632 | 50 | 309 | 0.0 | 0.0 | 0.00 | 0.00 | 0.00 | ||
| 20260510002130 | 50 | 309 | 0.0 | 0.0 | 0.00 | 0.00 | 0.00 | ||
| 20260510001631 | 50 | 309 | 0.0 | 0.0 | 0.00 | 0.00 | 0.00 | ||
| 20260510000634 | 50 | 340 | 3.0 | 2.0 | 0.00 | 0.00 | 0.00 | ||
| 20260510000135 | 50 | 353 | 4.0 | 4.0 | 0.00 | 0.00 | 0.00 | ||
| 20260509234633 | 50 | 18 | 2.0 | 1.0 | 0.00 | 0.00 | 0.00 | ||
| 20260509234135 | 50 | 49 | 3.0 | 3.0 | 0.00 | 0.00 | 0.00 | ||
| 20260509233636 | 50 | 48 | 4.0 | 3.0 | 0.00 | 0.00 | 0.00 | ||
| 20260509232137 | 52 | 44 | 5.0 | 6.0 | 0.00 | 0.00 | 0.00 | ||
| 20260509231638 | 51 | 38 | 5.0 | 5.0 | 0.00 | 0.00 | 0.00 | ||
| 20260509230637 | 50 | 354 | 5.0 | 5.0 | 0.00 | 0.00 | 0.00 | ||
| 20260509225141 | 51 | 48 | 3.0 | 3.0 | 0.00 | 0.00 | 0.00 | ||
| 20260509224141 | 53 | 44 | 2.0 | 2.0 | 0.00 | 0.00 | 0.00 | ||
| 20260509223144 | 52 | 60 | 3.0 | 3.0 | 0.00 | 0.00 | 0.00 | ||
| 20260509222147 | 52 | 32 | 2.0 | 2.0 | 0.00 | 0.00 | 0.00 | ||
| 20260509221644 | 52 | 11 | 2.0 | 2.0 | 0.00 | 0.00 | 0.00 | ||
| 20260509220647 | 55 | 60 | 4.0 | 4.0 | 0.00 | 0.00 | 0.00 | ||
| 20260509220148 | 54 | 58 | 4.0 | 4.0 | 0.00 | 0.00 | 0.00 | ||
| 20260509215148 | 53 | 52 | 4.0 | 4.0 | 0.00 | 0.00 | 0.00 | ||
| 20260509214151 | 55 | 62 | 5.0 | 4.0 | 0.00 | 0.00 | 0.00 | ||
| 20260509213652 | 56 | 58 | 4.0 | 4.0 | 0.00 | 0.00 | 0.00 | ||
| 20260509213154 | 56 | 76 | 5.0 | 5.0 | 0.00 | 0.00 | 0.00 | ||
| 20260509212652 | 56 | 60 | 5.0 | 6.0 | 0.00 | 0.00 | 0.00 | ||
| 20260509212153 | 56 | 51 | 5.0 | 5.0 | 0.00 | 0.00 | 0.00 | ||
| 20260509211655 | 57 | 49 | 5.0 | 5.0 | 0.00 | 0.00 | 0.00 | ||
| 20260509211156 | 57 | 38 | 6.0 | 6.0 | 0.00 | 0.00 | 0.00 | ||
| 20260509210657 | 55 | 45 | 5.0 | 5.0 | 0.00 | 0.00 | 0.00 | ||
| 20260509210155 | 57 | 49 | 4.0 | 4.0 | 0.00 | 0.00 | 0.00 | ||
| 20260509205656 | 56 | 45 | 3.0 | 4.0 | 0.00 | 0.00 | 0.00 | ||
| 20260509205158 | 56 | 37 | 5.0 | 4.0 | 0.00 | 0.00 | 0.00 | ||
| 20260509204659 | 55 | 34 | 4.0 | 4.0 | 0.00 | 0.00 | 0.00 | ||
| 20260509204200 | 57 | 31 | 4.0 | 5.0 | 0.00 | 0.00 | 0.00 | ||
| 20260509203659 | 58 | 77 | 4.0 | 5.0 | 0.00 | 0.00 | 0.00 | ||
| 20260509203200 | 59 | 51 | 5.0 | 5.0 | 0.00 | 0.00 | 0.00 | ||
| 20260509202702 | 59 | 68 | 4.0 | 4.0 | 0.00 | 0.00 | 0.00 | ||
| 20260509202203 | 59 | 48 | 3.0 | 2.0 | 0.00 | 0.00 | 0.00 | ||
| 20260509201704 | 58 | 31 | 3.0 | 2.0 | 0.00 | 0.00 | 0.00 | ||
| 20260509201202 | 57 | 359 | 3.0 | 2.0 | 0.00 | 0.00 | 0.00 | ||
| 20260509200703 | 57 | 6 | 2.0 | 2.0 | 0.00 | 0.00 | 0.00 | ||
| 20260509200205 | 57 | 25 | 3.0 | 3.0 | 0.00 | 0.00 | 0.00 | ||
| 20260509195207 | 57 | 42 | 4.0 | 5.0 | 0.00 | 0.00 | 0.00 | ||
| 20260509194705 | 58 | 42 | 4.0 | 4.0 | 0.00 | 0.00 | 0.00 | ||
| 20260509194206 | 59 | 51 | 4.0 | 4.0 | 0.00 | 0.00 | 0.00 | ||
| 20260509192710 | 58 | 44 | 3.0 | 3.0 | 0.00 | 0.00 | 0.00 | ||
| 20260509192208 | 59 | 46 | 4.0 | 3.0 | 0.00 | 0.00 | 0.00 | ||
| 20260509191709 | 61 | 46 | 3.0 | 4.0 | 0.00 | 0.00 | 0.00 | ||
| 20260509191210 | 61 | 70 | 4.0 | 4.0 | 0.00 | 0.00 | 0.00 | ||
| 20260509190212 | 62 | 69 | 4.0 | 5.0 | 0.00 | 0.00 | 0.00 | ||
| 20260509185710 | 62 | 49 | 3.0 | 3.0 | 0.00 | 0.00 | 0.00 | ||
| 20260509184712 | 62 | 68 | 4.0 | 3.0 | 0.00 | 0.00 | 0.00 | ||
| 20260509183714 | 65 | 45 | 2.0 | 3.0 | 0.00 | 0.00 | 0.00 | ||
| 20260509182714 | 64 | 48 | 3.0 | 2.0 | 0.00 | 0.00 | 0.00 | ||
| 20260509182215 | 65 | 45 | 4.0 | 3.0 | 0.00 | 0.00 | 0.00 | ||
| 20260509181217 | 65 | 37 | 5.0 | 5.0 | 0.00 | 0.00 | 0.00 | ||
| 20260509180715 | 65 | 51 | 4.0 | 4.0 | 0.00 | 0.00 | 0.00 |